Location: Eckley Miners' Village
(40.9930°N, 75.8630°W)
Time: 11:17:18
(UTC-04:00)

Vanguard 1 Rocket - Pass Details

Date: 14 March 2026
Orbit: 654 x 4213 km, 34.3° (Epoch: 11 April)

Event Time Altitude Azimuth Distance (km) Brightness Sun altitude
Rises 10:08:09 0° 256° (WSW) 3,072 9.8 29.7°
Reaches altitude 10° 10:10:37 10° 248° (WSW) 2,067 9.0 30.1°
Maximum altitude 10:14:42 38° 179° (S) 1,023 8.5 30.7°
Drops below altitude 10° 10:19:23 10° 111° (ESE) 2,369 10.9 31.4°
Sets 10:22:25 0° 104° (ESE) 3,599 11.4 31.9°
